CW6261 Weather Reports


time (UTC)temp
C
wind
direction
speed
KPH
gust
KPH
rain 1hr
cm
rain 24hr
cm
rain mn
cm
humidity
%
barometer
mb
20260509234702 30 186 1.6 6.4 0.00 0.00 0.00 53 100.7
20260509234202 30 119 1.6 1.6 0.00 0.00 0.00 53 100.7
20260509233702 30 141 1.6 1.6 0.00 0.00 0.00 52 100.7
20260509233202 30 209 0.0 4.8 0.00 0.00 0.00 53 100.7
20260509232702 30 203 0.0 8.0 0.00 0.00 0.00 52 100.8
20260509232202 30 237 0.0 6.4 0.00 0.00 0.00 52 100.8
20260509231202 29 272 0.0 1.6 0.00 0.00 0.00 52 100.8
20260509230702 30 113 1.6 6.4 0.00 0.00 0.00 51 100.8
20260509225202 30 194 8.0 11.3 0.00 0.00 0.00 49 100.7
20260509223701 30 183 4.8 6.4 0.00 0.00 0.00 49 100.7
20260509223202 30 175 3.2 9.7 0.00 0.00 0.00 48 100.7
20260509222702 30 156 0.0 11.3 0.00 0.00 0.00 48 100.8
20260509222202 30 101 0.0 8.0 0.00 0.00 0.00 48 100.8
20260509221702 30 221 4.8 11.3 0.00 0.00 0.00 48 100.8
20260509220702 30 189 4.8 9.7 0.00 0.00 0.00 47 100.8
20260509215703 30 142 1.6 4.8 0.00 0.00 0.00 46 100.7
20260509215202 30 211 4.8 4.8 0.00 0.00 0.00 48 100.7
20260509214702 31 191 3.2 8.0 0.00 0.00 0.00 48 100.7
20260509214202 31 203 4.8 9.7 0.00 0.00 0.00 46 100.7
20260509213702 31 340 1.6 3.2 0.00 0.00 0.00 46 100.7
20260509213202 30 113 0.0 1.6 0.00 0.00 0.00 49 100.7
20260509212702 31 236 3.2 4.8 0.00 0.00 0.00 48 100.8
20260509212203 30 144 1.6 3.2 0.00 0.00 0.00 49 100.8
20260509211202 30 49 1.6 3.2 0.00 0.00 0.00 49 100.8
20260509210702 30 263 1.6 3.2 0.00 0.00 0.00 51 100.8
20260509210202 30 332 0.0 3.2 0.00 0.00 0.00 51 100.8
20260509205702 30 278 1.6 1.6 0.00 0.00 0.00 51 100.8
20260509205202 30 160 0.0 4.8 0.00 0.00 0.00 51 100.8
20260509204702 29 280 3.2 6.4 0.00 0.00 0.00 52 100.8
20260509204202 28 148 1.6 4.8 0.00 0.00 0.00 52 100.8
20260509203702 29 185 1.6 8.0 0.00 0.00 0.00 51 100.8
20260509203202 28 133 0.0 6.4 0.00 0.00 0.00 47 100.8
20260509202202 28 186 4.8 8.0 0.00 0.00 0.00 44 100.9
20260509201202 28 129 3.2 6.4 0.00 0.00 0.00 40 100.9
20260509200702 27 212 0.0 8.0 0.00 0.00 0.00 42 100.9
20260509200203 27 204 3.2 25.7 0.00 0.00 0.00 41 100.9
20260509195702 28 159 1.6 12.9 0.00 0.00 0.00 51 100.9
20260509194202 28 161 1.6 3.2 0.00 0.00 0.00 56 100.9
20260509193202 28 157 1.6 6.4 0.00 0.00 0.00 57 100.9
20260509192702 28 95 3.2 6.4 0.00 0.00 0.00 57 100.9
20260509192202 28 66 0.0 6.4 0.00 0.00 0.00 59 100.9
20260509191702 28 265 1.6 6.4 0.00 0.00 0.00 59 100.9
20260509191202 28 47 3.2 6.4 0.00 0.00 0.00 63 100.9
20260509190702 27 38 4.8 6.4 0.00 0.00 0.00 64 100.9
20260509190202 28 47 4.8 11.3 0.00 0.00 0.00 66 100.9
20260509185202 27 81 0.0 6.4 0.00 0.00 0.00 65 100.9
20260509184702 27 43 3.2 6.4 0.00 0.00 0.00 65 100.9
20260509184202 28 27 3.2 9.7 0.00 0.00 0.00 67 100.9
20260509183702 28 333 1.6 6.4 0.00 0.00 0.00 61 101.0
20260509182703 28 293 4.8 6.4 0.00 0.00 0.00 59 101.0
20260509182202 28 306 0.0 6.4 0.00 0.00 0.00 58 101.0
20260509181702 29 250 3.2 11.3 0.00 0.00 0.00 59 101.0
20260509181202 29 272 3.2 6.4 0.00 0.00 0.00 59 101.0
20260509180703 28 326 1.6 8.0 0.00 0.00 0.00 61 101.0
20260509180202 28 251 4.8 8.0 0.00 0.00 0.00 62 101.0
20260509175702 28 35 1.6 4.8 0.00 0.00 0.00 65 101.0
20260509175202 27 323 1.6 6.4 0.00 0.00 0.00 66 101.0
20260509174702 27 275 4.8 8.0 0.00 0.00 0.00 67 101.0
20260509173702 27 358 1.6 6.4 0.00 0.00 0.00 67 101.0
20260509173202 27 247 3.2 4.8 0.00 0.00 0.00 67 101.0
20260509172202 27 273 6.4 6.4 0.00 0.00 0.00 70 101.0
20260509171703 27 247 3.2 9.7 0.00 0.00 0.00 69 101.0
20260509171203 28 268 3.2 6.4 0.00 0.00 0.00 67 101.0
20260509170702 28 275 1.6 4.8 0.00 0.00 0.00 67 101.0
20260509170202 27 282 3.2 4.8 0.00 0.00 0.00 68 101.0
20260509165702 27 322 3.2 8.0 0.00 0.00 0.00 70 101.0
20260509165202 27 240 6.4 6.4 0.00 0.00 0.00 70 101.0
20260509164703 27 273 6.4 8.0 0.00 0.00 0.00 72 101.0
20260509164203 26 261 3.2 6.4 0.00 0.00 0.00 73 101.0
20260509163202 26 279 1.6 9.7 0.00 0.00 0.00 72 101.0
20260509162702 27 258 4.8 12.9 0.00 0.00 0.00 72 101.0
20260509161702 26 248 3.2 8.0 0.00 0.00 0.00 75 101.0
20260509161202 25 205 1.6 3.2 0.00 0.00 0.00 78 101.0
20260509160702 25 203 6.4 6.4 0.00 0.00 0.00 78 101.0
20260509160203 25 238 4.8 8.0 0.00 0.00 0.00 79 101.0
20260509155702 25 202 3.2 6.4 0.00 0.00 0.00 82 101.0
20260509155202 25 250 6.4 11.3 0.00 0.00 0.00 82 101.0
20260509154202 25 197 9.7 14.5 0.00 0.00 0.00 80 101.0
20260509153703 25 236 3.2 11.3 0.00 0.00 0.00 80 101.0
20260509153202 25 260 6.4 9.7 0.00 0.00 0.00 79 101.0
20260509152702 25 197 6.4 9.7 0.00 0.00 0.00 80 101.0
20260509151701 25 247 4.8 9.7 0.00 0.00 0.00 81 101.0
20260509151202 25 234 6.4 9.7 0.00 0.00 0.00 81 101.0
20260509150202 25 220 4.8 8.0 0.00 0.00 0.00 81 101.0
20260509145702 25 217 4.8 8.0 0.00 0.00 0.00 80 101.0
20260509145202 25 192 6.4 17.7 0.00 0.00 0.00 81 101.0
20260509144702 25 241 4.8 11.3 0.00 0.00 0.00 80 101.0
20260509143702 25 224 3.2 9.7 0.00 0.00 0.00 80 101.0
20260509143202 25 214 4.8 16.1 0.00 0.00 0.00 81 101.0
20260509142702 25 212 4.8 12.9 0.00 0.00 0.00 81 101.0
20260509142202 25 188 4.8 8.0 0.00 0.00 0.00 81 101.0
20260509141703 24 175 3.2 8.0 0.00 0.00 0.00 83 101.0
20260509141202 24 190 3.2 4.8 0.00 0.00 0.00 84 101.0
20260509140702 23 181 3.2 11.3 0.00 0.00 0.00 85 101.0
20260509135702 23 194 8.0 9.7 0.00 0.00 0.00 86 101.0
20260509135202 23 259 3.2 8.0 0.00 0.00 0.00 88 101.0
20260509134703 23 234 3.2 11.3 0.00 0.00 0.00 88 101.0
20260509134203 23 251 3.2 9.7 0.00 0.00 0.00 90 101.0
20260509133702 22 177 4.8 9.7 0.00 0.00 0.00 91 101.0
20260509133202 22 141 4.8 14.5 0.00 0.00 0.00 93 101.0
20260509132702 22 225 3.2 12.9 0.00 0.00 0.00 95 101.0
20260509132202 22 211 6.4 12.9 0.00 0.00 0.00 96 101.0
20260509131702 21 218 4.8 16.1 0.00 0.00 0.00 97 101.0
20260509131203 21 205 4.8 14.5 0.00 0.00 0.00 98 101.0
20260509130702 21 224 4.8 6.4 0.00 0.00 0.00 98 101.0
20260509130202 21 204 1.6 8.0 0.00 0.00 0.00 99 101.0
20260509125702 21 240 1.6 6.4 0.00 0.00 0.00 99 101.0
20260509125202 21 259 1.6 4.8 0.00 0.00 0.00 99 101.0
20260509124702 21 193 3.2 8.0 0.00 0.00 0.00 99 101.0
20260509124202 21 243 1.6 3.2 0.00 0.00 0.00 99 101.0
20260509123202 21 30 3.2 6.4 0.00 0.00 0.00 99 101.0
20260509122202 21 95 0.0 1.6 0.00 0.00 0.00 99 101.0
20260509121702 21 299 3.2 3.2 0.00 0.00 0.00 99 101.0
20260509120702 21 314 1.6 6.4 0.00 0.00 0.00 99 101.0
20260509120202 21 12 3.2 4.8 0.00 0.00 0.00 99 101.0
20260509115702 21 72 1.6 4.8 0.00 0.00 0.00 99 101.0
20260509114702 21 354 1.6 3.2 0.00 0.00 0.00 98 101.0
20260509114202 21 208 0.0 4.8 0.00 0.00 0.00 99 101.0
20260509113202 21 135 1.6 3.2 0.00 0.00 0.00 98 101.0
20260509112702 21 145 1.6 4.8 0.00 0.00 0.00 99 101.0
20260509111702 21 18 3.2 6.4 0.00 0.00 0.00 98 101.0
20260509111202 21 150 1.6 4.8 0.00 0.00 0.00 98 101.0
20260509110702 21 50 3.2 3.2 0.00 0.00 0.00 98 101.0
20260509105702 21 292 1.6 4.8 0.00 0.00 0.00 98 101.0
20260509105202 21 288 1.6 3.2 0.00 0.00 0.00 98 101.0
20260509104702 21 6 0.0 4.8 0.00 0.00 0.00 98 101.0
20260509104202 21 63 3.2 6.4 0.00 0.00 0.00 98 101.0
20260509103702 21 246 0.0 4.8 0.00 0.00 0.00 98 101.0
20260509103203 21 40 1.6 4.8 0.00 0.00 0.00 98 101.0
20260509102702 21 83 3.2 3.2 0.00 0.00 0.00 98 101.0
20260509102202 21 28 1.6 6.4 0.00 0.00 0.00 98 101.0
20260509101202 21 161 3.2 4.8 0.00 0.00 0.00 98 101.0
20260509100702 21 358 3.2 9.7 0.00 0.00 0.00 98 101.0
20260509100203 21 356 6.4 8.0 0.00 0.00 0.00 98 101.0
20260509095703 21 40 3.2 4.8 0.00 0.00 0.00 98 101.0
20260509095202 21 342 0.0 3.2 0.00 0.00 0.00 98 100.9
20260509094702 21 132 0.0 8.0 0.00 0.00 0.00 98 100.9
20260509094202 21 169 0.0 4.8 0.00 0.00 0.00 98 100.9
20260509093202 21 113 3.2 4.8 0.00 0.00 0.00 98 101.0
20260509092702 21 93 0.0 4.8 0.00 0.00 0.00 98 101.0
20260509091702 21 182 6.4 6.4 0.00 0.00 0.00 97 101.0
20260509091202 21 268 1.6 6.4 0.00 0.00 0.00 97 101.0
20260509090703 21 312 1.6 8.0 0.00 0.00 0.00 97 100.9
20260509090202 21 180 3.2 3.2 0.00 0.00 0.00 97 100.9
20260509084702 21 115 1.6 4.8 0.00 0.00 0.00 97 100.9
20260509084202 21 135 0.0 1.6 0.00 0.00 0.00 96 100.9
20260509083702 21 89 3.2 4.8 0.00 0.00 0.00 97 100.9
20260509083202 21 238 3.2 4.8 0.00 0.00 0.00 96 101.0
20260509082703 21 114 0.0 6.4 0.00 0.00 0.00 96 101.0
20260509081702 21 206 1.6 3.2 0.00 0.00 0.00 96 101.0
20260509081202 21 22 0.0 1.6 0.00 0.00 0.00 96 101.0
20260509080702 21 135 0.0 0.0 0.00 0.00 0.00 96 101.0
20260509080201 21 135 0.0 1.6 0.00 0.00 0.00 96 101.0
20260509075702 21 129 0.0 0.0 0.00 0.00 0.00 95 101.0
20260509075202 21 135 0.0 0.0 0.00 0.00 0.00 95 101.0
20260509074703 22 115 0.0 1.6 0.00 0.00 0.00 95 101.0
20260509074202 22 98 0.0 1.6 0.00 0.00 0.00 95 101.0
20260509073702 22 116 0.0 1.6 0.00 0.00 0.00 94 101.0
20260509073202 22 44 0.0 3.2 0.00 0.00 0.00 94 101.0
20260509072702 22 153 0.0 3.2 0.00 0.00 0.00 94 101.0
20260509071702 22 185 0.0 3.2 0.00 0.00 0.00 93 101.0
20260509071202 22 224 0.0 0.0 0.00 0.00 0.00 93 101.0
20260509070702 22 246 0.0 1.6 0.00 0.00 0.00 93 101.0
20260509070202 22 152 0.0 1.6 0.00 0.00 0.00 93 101.0
20260509065702 22 227 1.6 1.6 0.00 0.00 0.00 93 101.0
20260509065202 22 192 3.2 4.8 0.00 0.00 0.00 93 101.0
20260509064702 22 171 0.0 0.0 0.00 0.00 0.00 93 101.0
20260509064202 22 190 1.6 3.2 0.00 0.00 0.00 93 101.0
20260509063702 22 204 3.2 6.4 0.00 0.00 0.00 92 101.0
20260509062702 22 177 4.8 8.0 0.00 0.00 0.00 92 101.0
20260509062202 22 223 1.6 4.8 0.00 0.00 0.00 92 101.0
20260509061702 22 180 3.2 3.2 0.00 0.00 0.00 92 101.0
20260509061203 22 123 1.6 4.8 0.00 0.00 0.00 92 101.0
20260509060702 22 238 1.6 6.4 0.00 0.00 0.00 91 101.0
20260509060202 22 190 1.6 1.6 0.00 0.00 0.00 91 101.0
20260509055702 22 159 1.6 6.4 0.00 0.00 0.00 91 101.0
20260509055202 22 122 0.0 9.7 0.00 0.00 0.00 91 101.0
20260509054702 22 117 1.6 14.5 0.00 0.00 0.00 91 101.0
20260509054202 22 202 6.4 9.7 0.00 0.00 0.00 91 101.0
20260509053702 22 174 0.0 8.0 0.00 0.00 0.00 91 101.0
20260509052704 22 145 3.2 4.8 0.00 0.00 0.00 91 101.0
20260509051702 22 156 1.6 9.7 0.00 0.00 0.00 90 100.9
20260509051202 22 167 1.6 9.7 0.00 0.00 0.00 89 100.9
20260509050704 22 190 8.0 8.0 0.00 0.00 0.00 89 101.0
20260509050203 22 168 3.2 3.2 0.00 0.00 0.00 89 101.0
20260509045702 22 158 1.6 3.2 0.00 0.00 0.00 89 101.0
20260509045202 22 141 0.0 3.2 0.00 0.00 0.00 89 101.0
20260509044702 22 160 1.6 3.2 0.00 0.00 0.00 88 101.0
20260509044202 22 180 6.4 6.4 0.00 0.00 0.00 88 101.0
20260509043702 22 194 3.2 8.0 0.00 0.00 0.00 88 101.0
20260509043202 22 192 3.2 6.4 0.00 0.00 0.00 88 101.0
20260509042702 22 146 1.6 3.2 0.00 0.00 0.00 88 101.0
20260509041703 22 194 3.2 6.4 0.00 0.00 0.00 88 101.0
20260509041202 22 147 0.0 6.4 0.00 0.00 0.00 88 101.0
20260509040202 22 117 0.0 4.8 0.00 0.00 0.00 88 100.9
20260509035702 22 149 0.0 4.8 0.00 0.00 0.00 88 100.9
20260509035202 22 195 0.0 0.0 0.00 0.00 0.00 88 100.9
20260509034702 22 188 1.6 3.2 0.00 0.00 0.00 88 100.9
20260509034202 22 224 0.0 6.4 0.00 0.00 0.00 88 100.9
20260509033702 22 198 4.8 4.8 0.00 0.00 0.00 88 100.9
20260509033203 22 197 3.2 4.8 0.00 0.00 0.00 89 101.0
20260509032702 22 190 1.6 4.8 0.00 0.00 0.00 89 101.0
20260509032202 22 185 3.2 4.8 0.00 0.00 0.00 88 100.9
20260509031703 22 170 0.0 6.4 0.00 0.00 0.00 88 100.9
20260509030702 22 209 1.6 3.2 0.00 0.00 0.00 88 100.9
20260509030202 22 218 1.6 4.8 0.00 0.00 0.00 87 100.9
20260509025702 22 224 0.0 4.8 0.00 0.00 0.00 87 100.9
20260509025203 22 187 0.0 1.6 0.00 0.00 0.00 87 100.9
20260509024702 22 101 0.0 4.8 0.00 0.00 0.00 87 100.9
20260509024202 22 190 0.0 1.6 0.00 0.00 0.00 87 100.9
20260509023702 22 104 0.0 0.0 0.00 0.00 0.00 86 100.9
20260509022702 23 104 0.0 0.0 0.00 0.00 0.00 86 100.9
20260509022202 23 124 0.0 3.2 0.00 0.00 0.00 85 100.9
20260509021202 23 103 1.6 3.2 0.00 0.00 0.00 84 100.9
20260509020701 23 41 1.6 4.8 0.00 0.00 0.00 84 100.9
20260509020202 23 187 4.8 4.8 0.00 0.00 0.00 84 100.9
20260509015702 23 135 0.0 4.8 0.00 0.00 0.00 83 100.9
20260509015202 23 135 0.0 3.2 0.00 0.00 0.00 83 100.9
20260509014702 23 144 0.0 8.0 0.00 0.00 0.00 83 100.9
20260509014201 23 155 1.6 6.4 0.00 0.00 0.00 82 100.9
20260509013702 23 160 1.6 3.2 0.00 0.00 0.00 82 100.9
20260509012702 24 168 3.2 8.0 0.00 0.00 0.00 80 100.9
20260509012203 24 198 3.2 6.4 0.00 0.00 0.00 80 100.9
20260509011703 24 183 4.8 8.0 0.00 0.00 0.00 79 100.8
20260509011202 24 191 0.0 4.8 0.00 0.00 0.00 79 100.8
20260509010702 24 112 1.6 8.0 0.00 0.00 0.00 79 100.8
20260509010202 24 333 0.0 3.2 0.00 0.00 0.00 79 100.8
20260509005702 24 129 0.0 4.8 0.00 0.00 0.00 79 100.8
20260509005203 24 44 0.0 1.6 0.00 0.00 0.00 79 100.8
20260509004704 24 115 1.6 3.2 0.00 0.00 0.00 79 100.8
20260509003202 24 89 0.0 1.6 0.00 0.00 0.00 78 100.8
20260509002702 24 113 1.6 3.2 0.00 0.00 0.00 78 100.8
20260509001702 24 122 0.0 6.4 0.00 0.00 0.00 78 100.8
20260509001202 25 182 1.6 1.6 0.00 0.00 0.00 77 100.8
20260509000702 25 242 0.0 1.6 0.00 0.00 0.00 77 100.8
20260509000204 25 304 0.0 1.6 0.00 0.00 0.00 77 100.8
20260508235702 25 202 1.6 8.0 0.00 0.00 0.00 77 100.8
20260508235202 25 119 0.0 1.6 0.00 0.00 0.00 77 100.8